Starlink 32651

operational
NORAD ID: 62314 Int'l Des: 2024-239 Owner: SPXS Country: US Constellation: starlink
LEOCIRCULAR

About Starlink 32651

Description loading...

Live Position

Loading 3D Globe...

Upcoming Passes

Altitude History

Altitude vs Time

uPlot chart will show altitude changes over time

Two-Line Element Set

1 62314U 24239P 25260.07390730 .00028985 00000-0 98690-3 0 9997
2 62314 53.1572 280.2684 0001419 96.2125 263.9038 15.30201019 42808
Epoch: Sep 17, 2025 • Age: 32 hours

Current Status

Altitude 477.5 km
Velocity 7.63 km/s
Sub-Earth Point 37.96°N, 172.03°E
Launch Date Dec 13, 2024
Age 0.7 years
Type internet

Technical Details

Classification Payload
Mass 730.00 kg
Dry Mass 700.00 kg
Total Mass 730.00 kg
Length 0.30 m
Diameter 4.10 m
Span 29.00 m
Shape Box + pan
Manufacturer SPXS
Bus Type Starlink V2M
Phase Status In Orbit
Owner/State SPXS/US

Large Constellations

Loading constellations...